Total_Precipitation_Accumulation
0.01 0.02 0.05 0.05 0.06 0.06 0.09 0.11 0.16 0.20 0.17 0.21 0.37 0.56 0.61 0.78 1.08 1.40 1.74 1.98 2.32 2.66 3.03 3.47 3.55 3.81 4.14 4.74 5.22 5.45 5.48 5.32 5.06 4.69 4.28 4.10 4.04 4.00 3.84 3.68 3.47 3.34 3.27 3.34
0.01 0.04 0.03 0.04 0.06 0.07 0.09 0.12 0.17 0.19 0.17 0.20 0.40 0.59 0.69 1.03 1.35 1.41 1.58 1.72 1.91 2.35 2.70 3.04 3.24 3.33 3.76 4.35 4.80 4.97 4.73 4.63 4.48 4.25 4.14 4.11 4.31 4.03 3.82 3.69 3.50 3.21 3.15 3.26
0.04 0.04 0.02 0.03 0.04 0.06 0.08 0.09 0.14 0.20 0.20 0.27 0.41 0.77 0.97 1.19 1.33 1.35 1.45 1.60 1.71 1.99 2.31 2.64 2.79 2.94 3.19 3.32 3.60 3.80 3.94 3.87 3.77 3.75 3.73 3.76 4.00 3.83 3.69 3.59 3.48 3.09 2.89 2.86
0.04 0.03 0.03 0.05 0.05 0.06 0.09 0.09 0.09 0.14 0.22 0.36 0.50 1.07 1.32 1.27 1.31 1.43 1.43 1.41 1.65 1.95 1.94 2.06 2.31 2.48 2.77 2.96 3.16 3.24 3.27 3.37 3.39 3.47 3.38 3.22 3.17 3.17 3.17 3.24 3.17 3.08 2.88 2.76
0.05 0.04 0.04 0.06 0.06 0.05 0.07 0.07 0.09 0.17 0.27 0.38 0.49 0.82 1.23 1.56 1.62 1.43 1.36 1.25 1.45 1.59 1.50 1.49 1.69 1.84 2.12 2.37 2.61 2.74 2.84 2.94 3.08 3.14 3.09 3.06 2.88 2.91 2.99 3.05 3.05 2.99 2.92 2.85
0.05 0.05 0.05 0.05 0.05 0.05 0.06 0.09 0.16 0.30 0.49 0.73 0.62 0.74 1.16 1.52 1.78 1.52 1.30 1.20 1.30 1.28 1.25 1.37 1.52 1.63 1.80 2.10 2.30 2.40 2.52 2.57 2.69 2.75 2.85 2.91 2.88 2.84 2.84 2.86 2.86 2.84 2.84 2.72
0.12 0.12 0.10 0.06 0.06 0.07 0.07 0.16 0.51 0.89 1.18 1.19 0.79 0.83 1.17 1.17 1.21 1.23 1.19 1.23 1.24 1.18 1.14 1.14 1.23 1.38 1.58 1.82 2.00 2.05 2.15 2.23 2.23 2.28 2.43 2.57 2.63 2.68 2.55 2.50 2.53 2.54 2.38 2.27
0.17 0.25 0.15 0.09 0.09 0.10 0.12 0.17 0.56 0.88 0.92 1.01 0.89 1.15 1.47 1.17 1.08 1.01 1.09 1.19 1.19 1.05 0.98 1.01 1.11 1.17 1.26 1.46 1.69 1.74 1.83 1.94 2.09 2.12 2.18 2.31 2.32 2.33 2.21 2.29 2.30 2.25 2.04 1.96
0.11 0.11 0.08 0.08 0.09 0.12 0.16 0.18 0.25 0.48 0.57 0.76 0.99 1.27 1.44 1.12 1.09 1.19 1.31 1.29 1.24 0.99 0.84 0.86 0.87 0.91 0.94 1.05 1.23 1.36 1.62 1.77 1.87 1.96 2.05 2.06 2.03 2.09 2.04 2.11 2.27 2.17 2.14 2.00
0.07 0.05 0.07 0.07 0.09 0.12 0.16 0.16 0.20 0.39 0.61 0.81 0.94 1.31 1.62 1.57 1.40 1.34 1.40 1.24 0.97 0.80 0.70 0.65 0.66 0.66 0.75 0.87 0.98 1.14 1.34 1.44 1.55 1.74 1.87 1.77 1.96 2.04 2.03 2.03 1.96 2.00 2.08 2.06
0.05 0.04 0.07 0.09 0.12 0.15 0.19 0.22 0.29 0.41 0.45 0.69 1.06 1.28 1.23 1.28 1.21 1.25 1.24 1.06 0.82 0.68 0.62 0.63 0.63 0.66 0.72 0.79 0.94 1.12 1.33 1.48 1.48 1.58 1.71 1.76 1.86 1.99 2.02 1.94 1.84 1.88 1.95 2.00
0.07 0.06 0.10 0.16 0.18 0.17 0.17 0.20 0.28 0.43 0.42 0.46 0.73 0.96 0.70 0.75 0.77 0.85 0.91 0.79 0.72 0.69 0.64 0.71 0.76 0.77 0.78 0.87 1.02 1.18 1.31 1.47 1.54 1.66 1.85 1.99 1.95 1.94 1.98 1.94 1.84 1.75 1.70 1.78
0.11 0.12 0.17 0.38 0.48 0.30 0.19 0.17 0.20 0.25 0.28 0.30 0.54 0.75 0.53 0.61 0.72 0.84 0.93 0.94 0.89 0.81 0.66 0.70 0.89 0.97 0.90 0.98 1.16 1.37 1.48 1.56 1.64 1.79 2.05 2.20 2.07 1.97 2.01 1.94 1.75 1.63 1.55 1.60
0.12 0.15 0.19 0.41 0.52 0.41 0.30 0.24 0.20 0.23 0.31 0.29 0.32 0.50 0.53 0.60 0.74 0.84 0.93 0.97 0.86 0.76 0.70 0.77 0.87 0.93 1.07 1.13 1.26 1.44 1.43 1.52 1.64 1.68 1.88 2.06 2.00 1.85 1.75 1.73 1.68 1.66 1.63 1.57
0.10 0.13 0.13 0.16 0.24 0.31 0.32 0.27 0.21 0.18 0.21 0.34 0.33 0.39 0.49 0.61 0.66 0.83 0.92 0.87 0.81 0.74 0.71 0.78 0.92 0.94 0.94 0.99 1.01 1.09 1.11 1.30 1.31 1.37 1.47 1.56 1.55 1.55 1.52 1.46 1.42 1.47 1.55 1.52
0.19 0.18 0.17 0.16 0.18 0.23 0.26 0.26 0.19 0.14 0.13 0.16 0.28 0.50 0.55 0.58 0.65 0.79 0.80 0.78 0.78 0.85 0.90 0.93 0.98 1.06 0.96 0.91 0.85 0.79 0.87 1.04 1.18 1.31 1.27 1.33 1.42 1.34 1.31 1.32 1.29 1.33 1.43 1.55
0.37 0.33 0.30 0.25 0.21 0.27 0.32 0.27 0.20 0.14 0.13 0.15 0.32 0.60 0.61 0.63 0.70 0.83 0.89 0.89 0.79 0.80 0.86 0.96 1.02 1.02 0.87 0.82 0.80 0.82 0.84 0.93 1.01 1.12 1.28 1.38 1.43 1.38 1.31 1.35 1.45 1.46 1.59 1.65
0.45 0.50 0.42 0.37 0.44 0.58 0.39 0.26 0.22 0.23 0.21 0.22 0.28 0.39 0.48 0.63 0.66 0.68 0.75 0.87 0.89 0.91 0.99 1.02 0.97 0.94 0.90 0.87 0.88 0.89 0.90 0.97 1.08 1.11 1.23 1.34 1.36 1.33 1.34 1.33 1.40 1.52 1.69 1.74
0.35 0.52 0.54 0.51 0.60 0.52 0.43 0.37 0.35 0.39 0.39 0.36 0.45 0.44 0.50 0.57 0.63 0.79 0.69 0.73 0.75 0.92 0.98 1.02 1.03 1.05 1.06 1.01 1.07 1.09 1.05 1.09 1.21 1.31 1.37 1.35 1.40 1.44 1.47 1.50 1.56 1.63 1.67 1.68
0.45 0.58 0.72 0.67 0.81 0.81 0.67 0.57 0.50 0.52 0.86 0.65 0.61 0.62 0.71 0.76 0.88 1.07 0.87 0.77 0.84 0.93 0.91 0.96 0.96 1.03 1.14 1.15 1.27 1.31 1.31 1.32 1.38 1.48 1.58 1.62 1.71 1.77 1.74 1.85 1.98 1.99 1.97 1.92
0.94 0.94 0.87 0.87 0.99 0.99 0.78 0.66 0.62 1.03 1.24 0.81 0.73 0.78 0.77 0.82 0.94 0.97 0.97 0.97 0.96 0.80 0.77 0.83 0.94 0.94 1.04 1.24 1.44 1.58 1.55 1.47 1.55 1.67 1.82 1.98 2.08 2.25 2.40 2.49 2.38 2.29 2.28 2.28
1.11 1.21 1.19 1.22 1.39 1.31 0.84 0.78 1.12 1.35 1.02 1.03 0.93 0.86 0.86 0.81 0.91 0.98 0.97 0.93 0.84 0.83 0.81 0.87 0.99 0.99 1.04 1.22 1.41 1.58 1.59 1.61 1.78 1.94 2.11 2.24 2.44 2.54 2.63 2.97 2.99 2.97 2.91 2.64
1.24 1.30 1.30 1.35 1.45 1.18 1.02 1.18 1.27 1.24 1.21 1.25 1.28 1.10 1.00 0.94 0.96 1.00 0.93 0.85 0.79 0.80 0.81 0.86 1.02 1.13 1.17 1.26 1.49 1.75 1.79 1.85 1.97 2.10 2.31 2.47 2.54 2.67 2.80 2.94 2.94 2.95 2.88 2.63
1.39 1.16 1.31 1.48 1.57 1.35 1.27 1.27 1.31 1.29 1.24 1.26 1.36 1.48 1.45 1.19 1.03 1.05 1.01 0.92 0.91 0.96 0.92 0.94 1.05 1.21 1.38 1.49 1.66 1.92 1.98 2.10 2.17 2.22 2.35 2.44 2.53 2.64 2.81 2.94 2.86 2.80 2.73 2.65
1.41 1.42 1.62 1.88 1.85 1.68 1.53 1.56 1.67 1.57 1.44 1.48 1.50 1.54 1.60 1.29 1.06 1.00 1.07 1.03 1.03 1.12 1.15 1.13 1.18 1.30 1.51 1.68 1.84 1.92 1.97 2.16 2.34 2.34 2.39 2.49 2.50 2.52 2.62 2.69 2.77 2.71 2.66 2.68
1.44 1.61 1.88 2.12 1.95 2.01 1.84 1.55 1.64 1.77 1.63 1.64 1.59 1.51 1.37 1.26 1.19 1.18 1.17 1.15 1.15 1.27 1.31 1.30 1.28 1.35 1.53 1.72 1.91 2.03 2.15 2.29 2.41 2.44 2.38 2.45 2.50 2.50 2.50 2.49 2.38 2.38 2.34 2.30